GW3296 Weather Reports


time (UTC)temp
F
wind
direction
speed
knots
gust
knots
rain 1hr
in
rain 24hr
in
rain mn
in
humidity
%
barometer
mb
20260906131735 73 47 0.0 7.8 0.00 0.00 0.00 88 1019.1
20260906131230 73 54 1.7 3.5 0.00 0.00 0.00 88 1019.0
20260906130726 73 99 3.5 5.2 0.00 0.00 0.00 88 1019.1
20260906130221 73 4 1.7 2.6 0.00 0.00 0.00 88 1019.3
20260906125719 73 78 4.3 6.1 0.00 0.00 0.00 88 1019.2
20260906125217 73 60 3.5 5.2 0.00 0.00 0.00 88 1019.0
20260906124713 73 116 1.7 4.3 0.00 0.00 0.00 89 1018.9
20260906124209 73 56 1.7 4.3 0.00 0.00 0.00 89 1019.0
20260906123707 73 342 0.9 5.2 0.00 0.00 0.00 89 1018.8
20260906123202 73 9 0.9 4.3 0.00 0.00 0.00 89 1018.7
20260906122701 72 59 0.0 3.5 0.00 0.00 0.00 89 1018.7
20260906122157 72 74 1.7 2.6 0.00 0.00 0.00 89 1018.5
20260906121653 72 327 1.7 3.5 0.00 0.00 0.00 89 1018.4
20260906121149 73 342 1.7 2.6 0.00 0.00 0.00 89 1018.2
20260906120645 72 298 0.0 3.5 0.00 0.00 0.00 89 1018.4
20260906120142 72 285 2.6 2.6 0.00 0.00 0.00 89 1018.2
20260906115642 72 209 0.9 2.6 0.00 0.00 0.00 89 1018.2
20260906115137 72 283 1.7 1.7 0.00 0.00 0.00 89 1018.1
20260906114636 72 130 0.0 1.7 0.00 0.00 0.00 89 1018.2
20260906114131 72 6 1.7 1.7 0.00 0.00 0.00 89 1017.8
20260906113632 72 38 0.0 1.7 0.00 0.00 0.00 90 1018.0
20260906113126 72 172 1.7 1.7 0.00 0.00 0.00 90 1017.7
20260906112625 72 54 0.0 1.7 0.00 0.00 0.00 90 1017.6
20260906112123 72 89 0.9 3.5 0.00 0.00 0.00 90 1017.9
20260906111622 71 203 0.0 1.7 0.00 0.00 0.00 90 1017.7
20260906111117 71 87 0.9 1.7 0.00 0.00 0.00 90 1017.9
20260906110617 71 59 0.9 2.6 0.00 0.00 0.00 90 1017.9
20260906110112 71 77 2.6 3.5 0.00 0.00 0.00 91 1017.7
20260906105606 71 215 0.9 2.6 0.00 0.00 0.00 91 1017.7
20260906105103 71 128 1.7 1.7 0.00 0.00 0.00 91 1017.7
20260906104601 71 52 0.9 1.7 0.00 0.00 0.00 91 1017.6
20260906104055 71 106 0.9 1.7 0.00 0.00 0.00 91 1017.7
20260906103554 71 65 0.9 1.7 0.00 0.00 0.00 91 1017.6
20260906103050 71 71 1.7 2.6 0.00 0.00 0.00 91 1017.6
20260906102549 71 276 0.0 2.6 0.00 0.00 0.00 91 1017.2
20260906102044 71 161 1.7 2.6 0.00 0.00 0.00 91 1017.2
20260906101539 71 154 2.6 3.5 0.00 0.00 0.00 91 1017.2
20260906101033 71 38 2.6 2.6 0.00 0.00 0.00 90 1017.1
20260906100529 71 50 2.6 3.5 0.00 0.00 0.00 90 1017.1
20260906100030 71 123 0.0 2.6 0.00 0.00 0.00 90 1017.2
20260906095524 71 147 0.0 3.5 0.00 0.00 0.00 90 1017.2
20260906095020 71 51 1.7 3.5 0.00 0.00 0.00 90 1017.0
20260906094518 71 350 0.9 3.5 0.00 0.00 0.00 90 1017.1
20260906094014 71 77 3.5 6.1 0.00 0.00 0.00 90 1016.9
20260906093510 71 102 1.7 3.5 0.00 0.00 0.00 91 1017.0
20260906093010 71 91 3.5 5.2 0.00 0.00 0.00 91 1016.9
20260906092505 71 27 1.7 5.2 0.00 0.00 0.00 91 1016.8
20260906092000 71 80 3.5 5.2 0.00 0.00 0.00 90 1017.0
20260906091455 71 66 4.3 5.2 0.00 0.00 0.00 90 1017.2
20260906090952 71 60 1.7 5.2 0.00 0.00 0.00 90 1017.1
20260906090447 71 59 0.9 3.5 0.00 0.00 0.00 90 1017.2
20260906085947 71 8 1.7 4.3 0.00 0.00 0.00 89 1017.0
20260906085446 71 310 0.0 2.6 0.00 0.00 0.00 89 1017.0
20260906084945 71 117 1.7 4.3 0.00 0.00 0.00 89 1017.0
20260906084440 71 89 3.5 7.8 0.00 0.00 0.00 89 1017.0
20260906083939 71 87 2.6 3.5 0.00 0.00 0.00 89 1017.0
20260906083435 71 148 0.0 2.6 0.00 0.00 0.00 88 1017.0
20260906082934 71 30 1.7 6.1 0.00 0.00 0.00 88 1017.0
20260906082430 71 25 3.5 9.6 0.00 0.00 0.00 88 1017.0
20260906081925 71 40 1.7 5.2 0.00 0.00 0.00 87 1017.0
20260906081421 71 89 2.6 5.2 0.00 0.00 0.00 87 1017.1
20260906080917 71 30 0.0 8.7 0.00 0.00 0.00 87 1017.0
20260906080413 71 60 4.3 5.2 0.00 0.00 0.00 87 1016.8
20260906075912 71 57 4.3 5.2 0.00 0.00 0.00 87 1016.9
20260906075408 71 20 0.9 5.2 0.00 0.00 0.00 87 1017.0
20260906074903 71 39 2.6 9.6 0.00 0.00 0.00 87 1017.0
20260906074402 71 55 3.5 7.8 0.00 0.00 0.00 86 1017.1
20260906073901 72 53 0.0 3.5 0.00 0.00 0.00 86 1017.0
20260906073356 72 54 2.6 4.3 0.00 0.00 0.00 86 1017.0
20260906072853 72 77 7.8 7.8 0.00 0.00 0.00 86 1017.3
20260906072348 72 50 2.6 6.1 0.00 0.00 0.00 86 1017.3
20260906071844 72 77 3.5 6.1 0.00 0.00 0.00 86 1017.2
20260906071339 73 28 3.5 6.1 0.00 0.00 0.00 86 1017.4
20260906070835 73 64 3.5 4.3 0.00 0.00 0.00 86 1017.4
20260906070331 73 51 1.7 5.2 0.00 0.00 0.00 85 1017.2
20260906065826 73 45 1.7 9.6 0.00 0.00 0.00 85 1017.4
20260906065321 73 58 4.3 5.2 0.00 0.00 0.00 85 1017.3
20260906064817 73 5 1.7 7.8 0.00 0.00 0.00 84 1017.6
20260906064313 74 36 6.1 7.0 0.00 0.00 0.00 84 1017.6
20260906063813 74 22 3.5 7.0 0.00 0.00 0.00 84 1017.8
20260906063308 74 34 1.7 2.6 0.00 0.00 0.00 85 1017.6
20260906062803 74 45 1.7 4.3 0.00 0.00 0.00 84 1017.3
20260906062305 74 68 2.6 5.2 0.00 0.00 0.00 84 1017.3
20260906061758 74 152 1.7 5.2 0.00 0.00 0.00 84 1017.2
20260906061254 75 62 5.2 5.2 0.00 0.00 0.00 83 1017.3
20260906060749 75 100 2.6 4.3 0.00 0.00 0.00 83 1017.1
20260906060247 75 50 0.9 3.5 0.00 0.00 0.00 82 1017.2
20260906055742 75 68 4.3 5.2 0.00 0.00 0.00 82 1017.0
20260906055237 75 29 1.7 6.1 0.00 0.00 0.00 82 1017.0
20260906054733 76 121 0.9 3.5 0.00 0.00 0.00 82 1017.0
20260906054228 76 63 1.7 3.5 0.00 0.00 0.00 82 1017.0
20260906053724 76 153 0.9 4.3 0.00 0.00 0.00 81 1016.8
20260906053220 76 103 2.6 3.5 0.00 0.00 0.00 81 1017.0
20260906052715 76 79 2.6 3.5 0.00 0.00 0.00 81 1016.7
20260906052211 77 29 0.9 6.1 0.00 0.00 0.00 80 1016.7
20260906051708 77 63 3.5 7.0 0.00 0.00 0.00 80 1016.9
20260906051207 77 63 5.2 7.0 0.00 0.00 0.00 80 1016.6
20260906050702 77 73 1.7 2.6 0.00 0.00 0.00 80 1016.6
20260906050157 77 187 0.0 1.7 0.00 0.00 0.00 80 1016.6
20260906045655 77 84 2.6 4.3 0.00 0.00 0.00 79 1016.6
20260906045151 77 94 2.6 5.2 0.00 0.00 0.00 80 1016.8
20260906044647 77 75 1.7 3.5 0.00 0.00 0.00 81 1016.6
20260906044142 78 212 0.0 4.3 0.00 0.00 0.00 81 1016.4
20260906043638 78 51 2.6 6.1 0.00 0.00 0.00 80 1016.4
20260906043134 78 38 1.7 3.5 0.00 0.00 0.00 80 1016.5
20260906042633 78 158 1.7 5.2 0.00 0.00 0.00 79 1016.2
20260906042127 79 315 1.7 3.5 0.00 0.00 0.00 78 1016.3
20260906041624 79 81 1.7 3.5 0.00 0.00 0.00 79 1016.3
20260906041124 79 111 3.5 7.0 0.00 0.00 0.00 78 1016.2
20260906040620 79 13 3.5 5.2 0.00 0.00 0.00 78 1016.3
20260906040115 80 25 2.6 5.2 0.00 0.00 0.00 78 1016.0
20260906035610 80 30 2.6 7.8 0.00 0.00 0.00 77 1016.0
20260906035106 80 18 0.9 3.5 0.00 0.00 0.00 77 1016.0
20260906034605 80 71 3.5 3.5 0.00 0.00 0.00 77 1015.9
20260906034101 80 1 0.0 5.2 0.00 0.00 0.00 77 1016.2
20260906033556 80 23 2.6 3.5 0.00 0.00 0.00 76 1016.2
20260906033051 81 36 3.5 8.7 0.00 0.00 0.00 76 1016.0
20260906032548 81 28 5.2 8.7 0.00 0.00 0.00 76 1016.1
20260906032047 81 32 3.5 7.0 0.00 0.00 0.00 76 1016.0
20260906031543 81 55 3.5 6.1 0.00 0.00 0.00 75 1015.8
20260906031039 82 66 5.2 9.6 0.00 0.00 0.00 75 1015.9
20260906030538 82 54 4.3 11.3 0.00 0.00 0.00 75 1016.0
20260906030038 82 19 3.5 8.7 0.00 0.00 0.00 75 1015.9
20260906025538 82 41 3.5 11.3 0.00 0.00 0.00 74 1016.0
20260906025036 83 53 11.3 13.0 0.00 0.00 0.00 74 1015.8
20260906024532 83 73 4.3 11.3 0.00 0.00 0.00 74 1015.5
20260906024031 84 42 5.2 5.2 0.00 0.00 0.00 75 1015.7
20260906023528 84 39 4.3 7.8 0.00 0.00 0.00 74 1015.4
20260906023022 84 71 2.6 7.8 0.00 0.00 0.00 73 1015.2
20260906022518 84 72 4.3 8.7 0.00 0.00 0.00 73 1015.2
20260906022013 85 356 3.5 5.2 0.00 0.00 0.00 73 1015.3
20260906021508 85 33 1.7 8.7 0.00 0.00 0.00 73 1015.2
20260906021002 85 53 1.7 3.5 0.00 0.00 0.00 74 1015.2
20260906020501 85 52 3.5 5.2 0.00 0.00 0.00 74 1015.1
20260906020001 85 47 1.7 2.6 0.00 0.00 0.00 74 1015.0
20260906015500 86 43 0.9 2.6 0.00 0.00 0.00 74 1014.9
20260906015000 86 22 5.2 7.0 0.00 0.00 0.00 74 1014.7
20260906014455 86 53 3.5 5.2 0.00 0.00 0.00 74 1014.7
20260906013946 86 37 4.3 4.3 0.00 0.00 0.00 74 1014.6
20260906013441 86 19 0.9 2.6 0.00 0.00 0.00 74 1014.6
20260906012937 86 6 0.0 2.6 0.00 0.00 0.00 75 1014.5
20260906012437 86 55 1.7 1.7 0.00 0.00 0.00 75 1014.6
20260906011936 86 95 1.7 1.7 0.00 0.00 0.00 74 1014.4
20260906011432 86 304 0.0 1.7 0.00 0.00 0.00 74 1014.7
20260906010927 86 150 0.0 1.7 0.00 0.00 0.00 73 1014.4
20260906010422 86 142 0.0 1.7 0.00 0.00 0.00 73 1014.3
20260906005918 87 39 1.7 2.6 0.00 0.00 0.00 72 1014.3
20260906005418 87 37 1.7 3.5 0.00 0.00 0.00 71 1014.3
20260906004916 87 51 0.0 3.5 0.00 0.00 0.00 71 1014.4
20260906004411 87 351 0.9 3.5 0.00 0.00 0.00 70 1014.3
20260906003906 88 50 1.7 2.6 0.00 0.00 0.00 69 1014.0
20260906003401 88 15 1.7 1.7 0.00 0.00 0.00 68 1014.0
20260906002857 88 4 2.6 2.6 0.00 0.00 0.00 68 1013.9
20260906002356 89 342 2.6 2.6 0.00 0.00 0.00 67 1014.2
20260906001852 89 342 0.0 2.6 0.00 0.00 0.00 66 1013.9
20260906001347 89 56 0.9 3.5 0.00 0.00 0.00 65 1014.1
20260906000842 90 9 1.7 3.5 0.00 0.00 0.00 65 1014.3
20260906000342 90 342 2.6 3.5 0.00 0.00 0.00 64 1014.0
20260905235843 90 347 1.7 1.7 0.00 0.00 0.00 64 1014.2
20260905235337 91 59 1.7 3.5 0.00 0.00 0.00 63 1014.0
20260905234832 91 24 3.5 4.3 0.00 0.00 0.00 62 1014.0
20260905234328 92 52 0.9 3.5 0.00 0.00 0.00 61 1014.0
20260905233823 92 349 5.2 6.1 0.00 0.00 0.00 60 1014.0
20260905233318 92 52 7.0 7.0 0.00 0.00 0.00 60 1014.2
20260905232816 92 302 2.6 5.2 0.00 0.00 0.00 60 1014.2
20260905232313 92 62 2.6 2.6 0.00 0.00 0.00 60 1014.1
20260905231808 92 19 0.0 3.5 0.00 0.00 0.00 60 1014.4
20260905231303 92 357 2.6 5.2 0.00 0.00 0.00 59 1014.2
20260905230800 93 331 0.9 4.3 0.00 0.00 0.00 59 1014.2
20260905230257 93 0 1.7 5.2 0.00 0.00 0.00 57 1014.1
20260905225757 94 355 7.0 10.4 0.00 0.00 0.00 55 1014.1
20260905225252 94 2 5.2 7.8 0.00 0.00 0.00 54 1013.9
20260905224752 94 350 4.3 7.8 0.00 0.00 0.00 55 1014.0
20260905224247 94 324 5.2 7.8 0.00 0.00 0.00 54 1013.9
20260905223743 94 0 7.0 7.8 0.00 0.00 0.00 54 1014.0
20260905223240 94 344 5.2 9.6 0.00 0.00 0.00 52 1013.9
20260905222735 95 38 0.9 8.7 0.00 0.00 0.00 53 1014.0
20260905222234 95 0 3.5 7.0 0.00 0.00 0.00 52 1013.9
20260905221730 95 3 3.5 10.4 0.00 0.00 0.00 51 1014.1
20260905221227 95 359 5.2 6.1 0.00 0.00 0.00 52 1013.9
20260905220723 95 311 1.7 3.5 0.00 0.00 0.00 52 1013.8
20260905220219 95 342 3.5 7.8 0.00 0.00 0.00 52 1014.0
20260905215718 95 35 2.6 6.1 0.00 0.00 0.00 51 1013.8
20260905215214 95 349 1.7 4.3 0.00 0.00 0.00 51 1013.8
20260905214709 96 315 5.2 7.8 0.00 0.00 0.00 50 1013.8
20260905214204 96 329 4.3 5.2 0.00 0.00 0.00 50 1013.9
20260905213700 97 349 1.7 5.2 0.00 0.00 0.00 50 1013.9
20260905213155 95 341 1.7 5.2 0.00 0.00 0.00 52 1014.0
20260905212650 95 356 4.3 8.7 0.00 0.00 0.00 51 1014.0
20260905212150 96 309 3.5 7.0 0.00 0.00 0.00 51 1014.0
20260905211644 97 335 2.6 6.1 0.00 0.00 0.00 49 1014.0
20260905211140 97 263 2.6 8.7 0.00 0.00 0.00 49 1013.8
20260905210637 97 6 2.6 7.0 0.00 0.00 0.00 50 1013.8
20260905210137 96 255 2.6 6.1 0.00 0.00 0.00 50 1014.1
20260905205635 97 7 3.5 7.0 0.00 0.00 0.00 49 1014.2
20260905205130 96 318 1.7 4.3 0.00 0.00 0.00 50 1014.0
20260905204629 96 318 6.1 7.8 0.00 0.00 0.00 49 1014.1
20260905204125 96 77 1.7 7.0 0.00 0.00 0.00 50 1014.1
20260905203625 96 19 4.3 7.8 0.00 0.00 0.00 50 1014.2
20260905203120 96 314 7.0 7.8 0.00 0.00 0.00 49 1014.0
20260905202616 96 311 5.2 7.0 0.00 0.00 0.00 50 1014.2
20260905202111 95 269 0.9 6.1 0.00 0.00 0.00 51 1014.4
20260905201607 95 320 2.6 7.8 0.00 0.00 0.00 50 1014.4
20260905201106 96 333 3.5 9.6 0.00 0.00 0.00 50 1014.4
20260905200602 96 30 5.2 6.1 0.00 0.00 0.00 49 1014.4
20260905200056 96 15 4.3 7.8 0.00 0.00 0.00 48 1014.1
20260905195555 97 276 5.2 9.6 0.00 0.00 0.00 47 1014.2
20260905195051 97 293 6.1 10.4 0.00 0.00 0.00 47 1014.3
20260905194551 97 1 5.2 5.2 0.00 0.00 0.00 46 1014.2
20260905194050 97 326 3.5 7.8 0.00 0.00 0.00 46 1014.4
20260905193545 98 352 4.3 7.8 0.00 0.00 0.00 45 1014.4
20260905193041 97 311 3.5 8.7 0.00 0.00 0.00 43 1014.5
20260905192536 97 251 7.8 11.3 0.00 0.00 0.00 44 1014.7
20260905192032 97 35 1.7 11.3 0.00 0.00 0.00 44 1014.6
20260905191530 97 11 5.2 7.8 0.00 0.00 0.00 46 1014.7
20260905191030 97 272 2.6 6.1 0.00 0.00 0.00 44 1014.6
20260905190527 97 17 1.7 8.7 0.00 0.00 0.00 45 1014.5
20260905190022 97 273 5.2 6.1 0.00 0.00 0.00 47 1014.7
20260905185521 96 17 2.6 8.7 0.00 0.00 0.00 47 1014.6
20260905185020 97 6 0.9 6.1 0.00 0.00 0.00 46 1014.8
20260905184515 95 254 1.7 7.8 0.00 0.00 0.00 48 1014.9
20260905184014 95 317 3.5 7.0 0.00 0.00 0.00 48 1014.9
20260905183514 96 4 2.6 7.8 0.00 0.00 0.00 47 1015.0
20260905183009 97 214 4.3 9.6 0.00 0.00 0.00 46 1015.1
20260905182508 96 332 1.7 6.1 0.00 0.00 0.00 47 1014.9
20260905182003 96 276 9.6 9.6 0.00 0.00 0.00 47 1014.8
20260905181458 96 320 1.7 4.3 0.00 0.00 0.00 49 1015.1
20260905180957 96 314 4.3 6.1 0.00 0.00 0.00 47 1015.2
20260905180452 96 271 5.2 8.7 0.00 0.00 0.00 48 1015.2
20260905175947 95 314 0.9 5.2 0.00 0.00 0.00 47 1015.2
20260905175447 96 331 2.6 4.3 0.00 0.00 0.00 48 1015.2
20260905174942 95 271 2.6 9.6 0.00 0.00 0.00 47 1015.4
20260905174437 95 8 2.6 5.2 0.00 0.00 0.00 49 1015.3
20260905173933 95 299 1.7 7.8 0.00 0.00 0.00 49 1015.4
20260905173430 95 311 6.1 7.0 0.00 0.00 0.00 49 1015.4
20260905172925 96 320 3.5 4.3 0.00 0.00 0.00 48 1015.4
20260905172422 95 335 1.7 4.3 0.00 0.00 0.00 49 1015.5
20260905171918 94 343 0.0 7.8 0.00 0.00 0.00 50 1015.5
20260905171415 94 348 0.9 3.5 0.00 0.00 0.00 50 1015.5
20260905170911 94 323 7.8 7.8 0.00 0.00 0.00 51 1015.6
20260905170407 94 65 2.6 4.3 0.00 0.00 0.00 50 1015.7
20260905165906 94 340 3.5 5.2 0.00 0.00 0.00 51 1015.5
20260905165401 94 346 1.7 4.3 0.00 0.00 0.00 51 1015.6
20260905164856 94 1 3.5 5.2 0.00 0.00 0.00 51 1015.7
20260905164351 94 55 0.9 5.2 0.00 0.00 0.00 49 1015.7
20260905163846 94 288 1.7 1.7 0.00 0.00 0.00 53 1015.6
20260905163343 93 65 1.7 2.6 0.00 0.00 0.00 54 1015.7
20260905162838 93 55 1.7 3.5 0.00 0.00 0.00 53 1015.7
20260905162338 93 324 0.0 4.3 0.00 0.00 0.00 53 1015.6
20260905161832 93 320 1.7 5.2 0.00 0.00 0.00 53 1015.6
20260905161332 93 16 0.0 3.5 0.00 0.00 0.00 54 1015.5
20260905160830 93 279 0.9 4.3 0.00 0.00 0.00 55 1015.8
20260905160325 92 322 0.0 4.3 0.00 0.00 0.00 55 1015.9
20260905155819 93 1 1.7 2.6 0.00 0.00 0.00 54 1015.9
20260905155319 93 46 0.9 3.5 0.00 0.00 0.00 54 1016.0
20260905154813 91 24 4.3 4.3 0.00 0.00 0.00 54 1015.9
20260905154308 91 241 1.7 5.2 0.00 0.00 0.00 54 1015.9
20260905153804 91 277 3.5 5.2 0.00 0.00 0.00 54 1016.0
20260905153300 92 272 2.6 6.1 0.00 0.00 0.00 51 1015.6
20260905152800 91 311 2.6 2.6 0.00 0.00 0.00 54 1015.9
20260905152259 91 331 3.5 4.3 0.00 0.00 0.00 54 1015.6
20260905151754 90 284 1.7 2.6 0.00 0.00 0.00 56 1015.5
20260905151250 90 249 0.9 2.6 0.00 0.00 0.00 56 1015.6
20260905150750 90 260 1.7 3.5 0.00 0.00 0.00 54 1015.6
20260905150249 90 265 1.7 3.5 0.00 0.00 0.00 54 1015.5
20260905145747 90 157 0.0 1.7 0.00 0.00 0.00 56 1015.4
20260905145242 89 283 1.7 1.7 0.00 0.00 0.00 57 1015.4
20260905144740 89 247 2.6 3.5 0.00 0.00 0.00 56 1015.6
20260905144236 88 241 1.7 3.5 0.00 0.00 0.00 59 1015.6
20260905143735 88 197 0.0 1.7 0.00 0.00 0.00 60 1015.4
20260905143235 88 352 0.0 0.9 0.00 0.00 0.00 63 1015.7
20260905142733 87 13 0.0 0.9 0.00 0.00 0.00 65 1015.6
20260905142228 86 55 0.0 0.9 0.00 0.00 0.00 65 1015.7
20260905141724 86 62 0.0 0.9 0.00 0.00 0.00 64 1015.5
20260905141220 86 242 0.0 1.7 0.00 0.00 0.00 63 1015.7
20260905140715 87 212 0.9 0.9 0.00 0.00 0.00 63 1015.6
20260905140209 86 62 0.0 0.9 0.00 0.00 0.00 64 1015.7
20260905135703 85 329 0.0 0.9 0.00 0.00 0.00 66 1015.5
20260905135200 85 262 1.7 1.7 0.00 0.00 0.00 65 1015.7
20260905134659 85 291 0.9 1.7 0.00 0.00 0.00 65 1015.6
20260905134158 86 285 1.7 1.7 0.00 0.00 0.00 65 1015.8
20260905133653 86 294 1.7 3.5 0.00 0.00 0.00 65 1015.6
20260905133148 85 126 0.0 0.0 0.00 0.00 0.00 68 1015.7
20260905132647 84 142 0.0 0.0 0.00 0.00 0.00 68 1015.6
20260905132142 83 309 0.0 0.0 0.00 0.00 0.00 69 1015.7